Torna al catalogo

STARLINK-35618

AttivoComunicazioniVLEO
NORAD 66423·PAYLOAD·🇺🇸 United States

Lanciato Nov 11, 2025 da Cape Canaveral Space Force Station

Loading…

Prossimi Passaggi (prossime 24 ore)

TLE

AggiornatoSource: CelesTrak SupGP

Epoca: Sep 15, 2026, 03:09 UTC

1 66423C 25259B   26258.13173611  .00001731  00000+0  62670-4 0  2584
2 66423  43.0025 284.6239 0001574 262.3578  53.9494 15.27585980    16

Traccia STARLINK-35618 in tempo reale con AllMySat

Download on the App Store